DW8228 Weather Reports


time (UTC)temp
C
wind
direction
speed
KPH
gust
KPH
rain 1hr
cm
rain 24hr
cm
rain mn
cm
humidity
%
barometer
mb
20260508084559 10 212 4.8 9.7 0.00 0.00 0.00 38 1026.0
20260508083059 10 205 3.2 8.0 0.00 0.00 0.00 40 1026.0
20260508081610 10 207 3.2 8.0 0.00 0.00 0.00 39 1025.9
20260508080058 10 227 3.2 6.4 0.00 0.00 0.00 36 1025.9
20260508074556 10 21 4.8 8.0 0.00 0.00 0.00 35 1025.8
20260508073100 9 281 0.0 4.8 0.00 0.00 0.00 42 1025.7
20260508071559 9 360 0.0 12.9 0.00 0.00 0.00 46 1025.5
20260508070057 9 19 3.2 9.7 0.00 0.00 0.00 40 1025.4
20260508064544 8 37 4.8 8.0 0.00 0.00 0.00 41 1025.3
20260508063038 7 319 3.2 4.8 0.00 0.00 0.00 47 1025.2
20260508061535 6 319 3.2 4.8 0.00 0.00 0.00 48 1025.0
20260508060036 6 320 3.2 4.8 0.00 0.00 0.00 53 1024.8
20260508054532 6 320 3.2 6.4 0.00 0.00 0.00 54 1024.6
20260508053028 5 320 3.2 6.4 0.00 0.00 0.00 58 1024.4
20260508051522 5 13 4.8 9.7 0.00 0.00 0.00 59 1024.1
20260508050021 4 315 4.8 9.7 0.00 0.00 0.00 60 1023.9
20260508044519 4 17 6.4 14.5 0.00 0.00 0.00 62 1023.8
20260508043018 3 19 6.4 14.5 0.00 0.00 0.00 63 1023.7
20260508041516 3 22 11.3 16.1 0.00 0.00 0.00 64 1023.6
20260508040027 2 360 6.4 12.9 0.00 0.00 0.00 64 1023.5
20260508034518 2 360 9.7 14.5 0.00 0.00 0.00 65 1023.4
20260508033013 2 319 8.0 12.9 0.00 0.00 0.00 67 1023.4
20260508031511 1 311 8.0 14.5 0.00 0.00 0.00 67 1023.2
20260508030013 1 18 6.4 12.9 0.00 0.00 0.00 66 1023.2
20260508024512 1 5 4.8 9.7 0.00 0.00 0.00 66 1023.1
20260508023007 1 306 8.0 14.5 0.00 0.00 0.00 66 1022.9
20260508021504 1 321 9.7 14.5 0.00 0.00 0.00 66 1022.7
20260508020112 2 289 8.0 16.1 0.00 0.00 0.00 66 1022.5
20260508014620 2 306 8.0 14.5 0.00 0.00 0.00 66 1022.2
20260508013107 2 311 6.4 16.1 0.00 0.00 0.00 66 1021.9
20260508011558 2 360 8.0 16.1 0.00 0.00 0.00 65 1021.8
20260508010054 2 360 6.4 14.5 0.00 0.00 0.00 63 1021.7
20260508004546 3 290 8.0 17.7 0.00 0.00 0.00 63 1021.5
20260508003044 3 309 9.7 19.3 0.00 0.00 0.00 63 1021.3
20260508001549 3 321 12.9 19.3 0.00 0.00 0.00 62 1021.2
20260508000038 3 301 11.3 19.3 0.00 0.00 0.00 62 1020.9
20260507234535 3 306 14.5 24.1 0.00 0.00 0.00 61 1020.7
20260507233034 3 304 12.9 22.5 0.00 0.00 0.00 61 1020.6
20260507231529 3 304 14.5 22.5 0.00 0.00 0.00 60 1020.4
20260507230031 3 316 6.4 12.9 0.00 0.00 0.00 59 1020.3
20260507224530 3 304 4.8 12.9 0.00 0.00 0.00 58 1020.0
20260507223023 3 285 4.8 12.9 0.00 0.00 0.00 57 1020.0
20260507221525 3 295 8.0 16.1 0.00 0.00 0.00 57 1019.8
20260507220019 4 305 9.7 17.7 0.00 0.00 0.00 55 1019.7
20260507214517 4 301 12.9 19.3 0.00 0.00 0.00 55 1019.6
20260507213015 4 303 9.7 16.1 0.00 0.00 0.00 54 1019.4
20260507211527 5 296 9.7 14.5 0.00 0.00 0.00 52 1019.3
20260507210007 5 290 9.7 19.3 0.00 0.00 0.00 51 1019.1
20260507204505 5 302 12.9 22.5 0.00 0.00 0.00 48 1018.9
20260507203002 5 309 12.9 20.9 0.00 0.00 0.00 47 1018.6
20260507201502 6 298 11.3 19.3 0.00 0.00 0.00 45 1018.5
20260507200059 6 291 11.3 19.3 0.00 0.00 0.00 45 1018.3
20260507194607 6 286 9.7 16.1 0.00 0.00 0.00 44 1018.1
20260507193056 6 284 12.9 24.1 0.00 0.00 0.00 43 1017.9
20260507191601 6 293 14.5 22.5 0.00 0.00 0.00 41 1017.7
20260507190052 7 304 11.3 20.9 0.00 0.00 0.00 39 1017.4
20260507184549 7 264 16.1 27.4 0.00 0.00 0.00 34 1017.2
20260507183054 8 301 16.1 29.0 0.00 0.00 0.00 33 1017.1
20260507181547 8 282 19.3 27.4 0.00 0.00 0.00 30 1017.0
20260507180051 8 263 14.5 29.0 0.00 0.00 0.00 29 1016.7
20260507174543 9 284 17.7 32.2 0.00 0.00 0.00 27 1016.7
20260507173055 9 271 16.1 32.2 0.00 0.00 0.00 26 1016.5
20260507171539 10 273 16.1 27.4 0.00 0.00 0.00 26 1016.3
20260507170048 10 267 11.3 27.4 0.00 0.00 0.00 25 1016.3
20260507164535 10 271 17.7 30.6 0.00 0.00 0.00 22 1016.3
20260507163032 10 286 16.1 29.0 0.00 0.00 0.00 23 1016.2
20260507161530 10 248 14.5 29.0 0.00 0.00 0.00 23 1016.3
20260507160029 11 290 16.1 27.4 0.00 0.00 0.00 29 1016.2
20260507154522 11 271 19.3 32.2 0.00 0.00 0.00 27 1016.1
20260507153019 11 272 16.1 33.8 0.00 0.00 0.00 29 1016.0
20260507151520 12 258 16.1 30.6 0.00 0.00 0.00 28 1015.9
20260507150018 12 271 12.9 25.7 0.00 0.00 0.00 28 1015.8
20260507144514 12 313 14.5 20.9 0.00 0.00 0.00 23 1015.7
20260507143012 12 254 8.0 14.5 0.00 0.00 0.00 26 1015.6
20260507141511 12 227 9.7 20.9 0.00 0.00 0.00 28 1015.6
20260507140010 12 220 12.9 24.1 0.00 0.00 0.00 33 1015.5
20260507134509 11 221 17.7 25.7 0.00 0.00 0.00 35 1015.5
20260507133007 11 241 17.7 25.7 0.00 0.00 0.00 34 1015.5
20260507131507 10 217 17.7 25.7 0.00 0.00 0.00 35 1015.5
20260507130005 10 215 22.5 29.0 0.00 0.00 0.00 35 1015.5
20260507124504 10 198 16.1 20.9 0.00 0.00 0.00 43 1015.5
20260507123001 10 216 19.3 25.7 0.00 0.00 0.00 43 1015.5
20260507121501 10 207 16.1 19.3 0.00 0.00 0.00 43 1015.5
20260507120059 12 213 14.5 16.1 0.00 0.00 0.00 30 1015.4
20260507114600 11 196 9.7 14.5 0.00 0.00 0.00 32 1015.5
20260507113056 11 208 11.3 16.1 0.00 0.00 0.00 34 1015.5
20260507111556 11 203 9.7 16.1 0.00 0.00 0.00 35 1015.5
20260507104601 10 209 6.4 12.9 0.00 0.00 0.00 29 1015.4
20260507103125 10 207 8.0 12.9 0.00 0.00 0.00 34 1015.4
20260507101552 11 211 8.0 12.9 0.00 0.00 0.00 30 1015.2
20260507100103 11 206 4.8 8.0 0.00 0.00 0.00 27 1015.2
20260507094550 11 206 4.8 8.0 0.00 0.00 0.00 35 1015.1
20260507093048 12 303 0.0 4.8 0.00 0.00 0.00 24 1015.1
20260507091548 11 269 3.2 9.7 0.00 0.00 0.00 25 1015.0
20260507090054 11 229 3.2 6.4 0.00 0.00 0.00 25 1015.0